Zurück zum Katalog

STARLINK-31900

AktivKommunikationVLEO
NORAD 59942·PAYLOAD·🇺🇸 United States

Gestartet Jun 1, 2024 von Cape Canaveral Space Force Station

Loading…

Nächste Überflüge (nächste 24 Stunden)

TLE

AktuellSource: CelesTrak SupGP

Epoche: Sep 15, 2026, 02:01 UTC

1 59942C 24106W   26258.08451389  .00036678  00000+0  13280-2 0  2586
2 59942  43.0035 342.6018 0001874 272.8728  28.5172 15.27570912    11

Verfolge STARLINK-31900 in Echtzeit mit AllMySat

Download on the App Store